Total_Precipitation_Accumulation
0.03 0.02 0.02 0.02 0.04 0.03 0.02 0.02 0.02 0.01 0.02 0.02 0.02 0.02 0.03 0.02 0.03 0.04 0.05 0.06 0.15 0.14 0.13 0.13 0.18 0.14 0.05 0.06 0.04 0.05 0.06 0.07 0.07 0.07 0.09 0.11 0.13 0.14 0.17 0.21 0.23 0.24
0.02 0.02 0.02 0.02 0.02 0.01 0.01 0.01 0.01 0.03 0.04 0.03 0.02 0.02 0.02 0.02 0.02 0.03 0.03 0.03 0.04 0.04 0.04 0.10 0.06 0.14 0.10 0.11 0.09 0.12 0.11 0.09 0.10 0.08 0.08 0.10 0.12 0.12 0.12 0.14 0.17 0.20
0.04 0.01 0.01 0.01 0.02 0.03 0.02 0.02 0.02 0.02 0.02 0.02 0.02 0.02 0.03 0.03 0.03 0.03 0.03 0.04 0.05 0.09 0.05 0.11 0.10 0.11 0.15 0.12 0.06 0.08 0.10 0.11 0.13 0.12 0.14 0.12 0.10 0.12 0.13 0.12 0.14 0.18
0.02 0.01 0.01 0.02 0.02 0.03 0.02 0.02 0.02 0.03 0.01 0.02 0.02 0.02 0.03 0.04 0.04 0.05 0.05 0.06 0.06 0.06 0.08 0.07 0.08 0.08 0.10 0.06 0.17 0.12 0.12 0.10 0.12 0.13 0.13 0.18 0.16 0.14 0.13 0.13 0.15 0.16
0.01 0.02 0.02 0.02 0.02 0.02 0.02 0.02 0.02 0.01 0.02 0.02 0.03 0.02 0.03 0.03 0.04 0.06 0.06 0.06 0.06 0.07 0.16 0.09 0.08 0.08 0.06 0.05 0.07 0.11 0.07 0.07 0.06 0.07 0.10 0.14 0.15 0.15 0.15 0.16 0.18 0.19
0.01 0.02 0.02 0.02 0.01 0.01 0.03 0.02 0.02 0.05 0.08 0.04 0.04 0.02 0.04 0.04 0.05 0.05 0.06 0.07 0.06 0.07 0.08 0.24 0.12 0.09 0.14 0.06 0.06 0.04 0.06 0.05 0.06 0.06 0.05 0.07 0.08 0.09 0.13 0.15 0.19 0.19
0.02 0.01 0.01 0.02 0.02 0.03 0.03 0.04 0.06 0.09 0.05 0.06 0.12 0.10 0.05 0.05 0.04 0.05 0.06 0.07 0.07 0.07 0.07 0.11 0.07 0.10 0.06 0.06 0.08 0.06 0.07 0.06 0.06 0.06 0.05 0.05 0.07 0.07 0.08 0.13 0.14 0.15
0.01 0.01 0.02 0.02 0.03 0.03 0.03 0.04 0.12 0.09 0.11 0.07 0.11 0.04 0.09 0.04 0.05 0.06 0.06 0.07 0.07 0.08 0.07 0.07 0.12 0.09 0.06 0.07 0.06 0.05 0.06 0.07 0.09 0.11 0.07 0.07 0.06 0.06 0.05 0.07 0.11 0.13
0.02 0.02 0.02 0.02 0.02 0.02 0.07 0.04 0.07 0.09 0.09 0.08 0.06 0.05 0.06 0.08 0.08 0.09 0.09 0.09 0.10 0.08 0.08 0.10 0.11 0.12 0.09 0.12 0.13 0.11 0.09 0.06 0.06 0.06 0.05 0.05 0.05 0.04 0.04 0.05 0.08 0.11
0.02 0.02 0.02 0.03 0.07 0.05 0.03 0.04 0.05 0.05 0.06 0.04 0.06 0.07 0.08 0.07 0.08 0.07 0.09 0.08 0.09 0.09 0.14 0.08 0.09 0.07 0.10 0.13 0.13 0.11 0.13 0.14 0.10 0.08 0.07 0.07 0.08 0.06 0.05 0.05 0.06 0.09
0.03 0.03 0.03 0.03 0.02 0.02 0.02 0.03 0.08 0.04 0.04 0.08 0.08 0.10 0.16 0.10 0.09 0.08 0.09 0.10 0.09 0.07 0.06 0.05 0.06 0.05 0.06 0.06 0.06 0.07 0.09 0.10 0.10 0.11 0.11 0.11 0.09 0.10 0.11 0.10 0.09 0.07
0.02 0.02 0.02 0.02 0.02 0.05 0.03 0.03 0.04 0.05 0.06 0.10 0.16 0.07 0.11 0.10 0.12 0.11 0.11 0.09 0.08 0.08 0.07 0.09 0.07 0.06 0.06 0.09 0.05 0.04 0.05 0.06 0.07 0.07 0.08 0.09 0.11 0.12 0.10 0.11 0.11 0.10
0.01 0.02 0.02 0.02 0.03 0.03 0.04 0.06 0.06 0.06 0.07 0.08 0.09 0.11 0.14 0.14 0.15 0.12 0.12 0.11 0.10 0.10 0.09 0.09 0.08 0.07 0.06 0.06 0.05 0.06 0.07 0.07 0.06 0.06 0.06 0.06 0.07 0.08 0.08 0.09 0.10 0.11
0.02 0.03 0.03 0.03 0.04 0.12 0.06 0.06 0.07 0.08 0.09 0.10 0.12 0.13 0.18 0.18 0.18 0.14 0.13 0.13 0.13 0.13 0.11 0.10 0.10 0.09 0.08 0.07 0.06 0.06 0.06 0.08 0.07 0.09 0.10 0.09 0.07 0.06 0.06 0.07 0.09 0.10
0.02 0.03 0.03 0.04 0.04 0.06 0.06 0.07 0.08 0.12 0.11 0.13 0.17 0.21 0.18 0.18 0.20 0.18 0.17 0.18 0.14 0.14 0.15 0.12 0.13 0.11 0.09 0.09 0.09 0.08 0.09 0.11 0.09 0.10 0.09 0.08 0.07 0.07 0.08 0.07 0.07 0.08
0.03 0.04 0.05 0.08 0.06 0.08 0.08 0.08 0.09 0.11 0.16 0.15 0.20 0.21 0.21 0.18 0.19 0.19 0.21 0.29 0.18 0.16 0.15 0.18 0.15 0.13 0.11 0.11 0.13 0.15 0.15 0.13 0.13 0.11 0.11 0.10 0.10 0.08 0.07 0.06 0.06 0.07
0.04 0.06 0.07 0.08 0.10 0.09 0.10 0.12 0.12 0.13 0.15 0.20 0.20 0.21 0.23 0.26 0.24 0.27 0.26 0.25 0.24 0.24 0.26 0.23 0.21 0.16 0.13 0.16 0.20 0.26 0.25 0.25 0.21 0.17 0.14 0.13 0.12 0.10 0.08 0.07 0.06 0.06
0.06 0.08 0.09 0.10 0.11 0.12 0.13 0.15 0.15 0.17 0.18 0.19 0.26 0.24 0.28 0.28 0.33 0.34 0.27 0.25 0.25 0.25 0.26 0.24 0.24 0.18 0.19 0.22 0.27 0.32 0.38 0.36 0.33 0.26 0.19 0.16 0.14 0.13 0.10 0.09 0.08 0.07
0.08 0.10 0.12 0.13 0.13 0.19 0.14 0.18 0.19 0.20 0.21 0.25 0.28 0.28 0.32 0.34 0.37 0.31 0.30 0.30 0.29 0.33 0.27 0.25 0.24 0.20 0.23 0.29 0.30 0.38 0.43 0.47 0.47 0.37 0.27 0.19 0.15 0.13 0.12 0.11 0.10 0.10
0.11 0.14 0.16 0.16 0.15 0.15 0.17 0.20 0.23 0.24 0.25 0.32 0.31 0.31 0.35 0.37 0.35 0.37 0.35 0.39 0.38 0.38 0.34 0.33 0.29 0.27 0.29 0.37 0.42 0.49 0.55 0.62 0.48 0.40 0.31 0.23 0.18 0.16 0.14 0.12 0.12 0.12
0.15 0.20 0.20 0.18 0.17 0.17 0.19 0.21 0.23 0.23 0.24 0.27 0.32 0.36 0.39 0.41 0.40 0.40 0.41 0.43 0.43 0.50 0.45 0.43 0.35 0.33 0.40 0.48 0.49 0.53 0.56 0.88 0.63 0.56 0.46 0.35 0.26 0.21 0.19 0.17 0.14 0.14
0.17 0.19 0.19 0.22 0.19 0.19 0.23 0.25 0.25 0.25 0.31 0.30 0.34 0.36 0.37 0.37 0.33 0.33 0.33 0.33 0.31 0.34 0.38 0.37 0.28 0.31 0.42 0.50 0.54 0.65 0.78 0.90 0.84 0.57 0.44 0.40 0.33 0.30 0.26 0.23 0.20 0.19
0.18 0.20 0.22 0.20 0.20 0.22 0.23 0.25 0.26 0.25 0.25 0.26 0.31 0.27 0.24 0.22 0.23 0.21 0.22 0.26 0.27 0.27 0.29 0.25 0.23 0.26 0.35 0.44 0.48 0.57 1.06 1.21 0.99 0.60 0.40 0.32 0.28 0.26 0.25 0.24 0.21 0.20
0.19 0.22 0.24 0.21 0.22 0.22 0.20 0.19 0.18 0.20 0.22 0.22 0.26 0.24 0.23 0.23 0.22 0.23 0.22 0.23 0.26 0.26 0.25 0.28 0.24 0.24 0.29 0.32 0.35 0.54 0.72 0.74 0.70 0.60 0.37 0.30 0.29 0.27 0.26 0.25 0.21 0.20
0.22 0.20 0.21 0.20 0.20 0.18 0.16 0.17 0.16 0.18 0.19 0.20 0.22 0.22 0.22 0.21 0.21 0.22 0.21 0.22 0.23 0.25 0.28 0.31 0.29 0.25 0.26 0.34 0.47 0.58 0.67 0.68 0.61 0.55 0.45 0.39 0.38 0.36 0.32 0.25 0.20 0.19
0.20 0.18 0.17 0.19 0.19 0.16 0.14 0.15 0.15 0.16 0.14 0.17 0.18 0.17 0.18 0.16 0.17 0.17 0.18 0.22 0.25 0.30 0.31 0.30 0.30 0.28 0.31 0.40 0.43 0.39 0.45 0.52 0.36 0.34 0.40 0.43 0.43 0.37 0.40 0.36 0.28 0.26